EW2975 Weather Reports


Display with metric or nautical units.
time (UTC)temp
F
wind
direction
speed
MPH
gust
MPH
rain 1hr
in
rain 24hr
in
rain mn
in
humidity
%
barometer
mb
20220928000904 85 0 0.0 0.0 0.00 0.00 0.00 25 1018.5
20220928000704 85 0 0.0 0.0 0.00 0.00 0.00 25 1018.5
20220928000505 86 0 0.0 0.0 0.00 0.00 0.00 25 1018.4
20220928000304 86 0 0.0 0.0 0.00 0.00 0.00 25 1018.4
20220928000104 86 0 0.0 0.0 0.00 0.00 0.00 24 1018.4
20220928000005 86 0 0.0 0.0 0.00 0.00 0.00 24 1018.4
20220927235904 86 0 0.0 0.0 0.00 0.00 0.00 24 1018.4
20220927235804 86 0 0.0 0.0 0.00 0.00 0.00 24 1018.3
20220927235704 86 0 0.0 0.0 0.00 0.00 0.00 24 1018.3
20220927235605 86 0 0.0 0.0 0.00 0.00 0.00 24 1018.3
20220927235404 87 0 0.0 0.0 0.00 0.00 0.00 24 1018.3
20220927235306 87 0 0.0 0.0 0.00 0.00 0.00 24 1018.3
20220927235204 87 0 0.0 0.0 0.00 0.00 0.00 24 1018.3
20220927235104 87 0 0.0 0.0 0.00 0.00 0.00 24 1018.2
20220927234904 87 0 0.0 0.0 0.00 0.00 0.00 24 1018.3
20220927234605 87 62 0.0 2.0 0.00 0.00 0.00 24 1018.2
20220927234404 87 68 0.0 2.0 0.00 0.00 0.00 23 1018.3
20220927234304 87 68 0.0 2.0 0.00 0.00 0.00 23 1018.2
20220927234204 88 67 0.0 2.0 0.00 0.00 0.00 23 1018.2
20220927234105 88 67 0.0 2.0 0.00 0.00 0.00 23 1018.2
20220927233904 88 61 0.0 2.0 0.00 0.00 0.00 23 1018.2
20220927233704 88 62 0.0 2.0 0.00 0.00 0.00 23 1018.2
20220927233604 88 62 0.0 2.0 0.00 0.00 0.00 23 1018.1
20220927233504 88 60 0.0 2.0 0.00 0.00 0.00 23 1018.1
20220927233104 88 55 0.0 1.0 0.00 0.00 0.00 23 1018.1
20220927232904 88 68 0.0 1.0 0.00 0.00 0.00 23 1018.1
20220927232804 89 0 0.0 0.0 0.00 0.00 0.00 23 1018.1
20220927232605 89 0 0.0 0.0 0.00 0.00 0.00 22 1018.1
20220927232504 89 0 0.0 0.0 0.00 0.00 0.00 22 1018.1
20220927232404 89 100 0.0 1.0 0.00 0.00 0.00 22 1018.1
20220927232104 89 94 0.0 3.0 0.00 0.00 0.00 22 1018.1
20220927231904 89 87 0.0 3.0 0.00 0.00 0.00 22 1018.1
20220927231804 89 87 0.0 3.0 0.00 0.00 0.00 22 1018.0
20220927231703 89 88 0.0 3.0 0.00 0.00 0.00 22 1018.0
20220927231604 89 87 0.0 3.0 0.00 0.00 0.00 22 1018.0
20220927231504 89 87 0.0 3.0 0.00 0.00 0.00 22 1018.0
20220927230903 90 80 0.0 2.0 0.00 0.00 0.00 22 1018.0
20220927230704 90 72 0.0 2.0 0.00 0.00 0.00 22 1018.0
20220927230604 90 65 0.0 2.0 0.00 0.00 0.00 22 1018.0
20220927230404 90 67 0.0 2.0 0.00 0.00 0.00 22 1018.0
20220927230204 90 66 0.0 2.0 0.00 0.00 0.00 22 1018.0
20220927230103 90 65 0.0 2.0 0.00 0.00 0.00 22 1018.0
20220927230004 90 65 0.0 2.0 0.00 0.00 0.00 21 1018.0
20220927225703 90 68 0.0 2.0 0.00 0.00 0.00 22 1018.1
20220927225604 90 68 0.0 2.0 0.00 0.00 0.00 21 1018.0
20220927225504 90 67 0.0 2.0 0.00 0.00 0.00 22 1018.0
20220927225403 90 67 0.0 2.0 0.00 0.00 0.00 21 1018.0
20220927225204 90 68 0.0 2.0 0.00 0.00 0.00 21 1018.0
20220927225003 90 67 0.0 2.0 0.00 0.00 0.00 21 1018.1
20220927224904 90 70 0.0 2.0 0.00 0.00 0.00 21 1018.1
20220927224804 90 53 0.0 3.0 0.00 0.00 0.00 22 1018.0
20220927224204 90 45 0.0 5.0 0.00 0.00 0.00 21 1018.0
20220927224104 90 45 0.0 5.0 0.00 0.00 0.00 21 1018.0
20220927223904 90 44 0.0 5.0 0.00 0.00 0.00 21 1017.9
20220927223804 90 43 0.0 5.0 0.00 0.00 0.00 21 1018.0
20220927223403 90 60 0.0 4.0 0.00 0.00 0.00 22 1018.0
20220927223304 90 64 0.0 4.0 0.00 0.00 0.00 22 1018.0
20220927223105 90 64 0.0 4.0 0.00 0.00 0.00 21 1018.0
20220927223004 90 64 0.0 4.0 0.00 0.00 0.00 21 1018.0
20220927222904 90 66 1.0 4.0 0.00 0.00 0.00 21 1018.0
20220927222804 90 66 1.0 4.0 0.00 0.00 0.00 21 1018.0
20220927222704 90 64 1.0 7.0 0.00 0.00 0.00 21 1018.0
20220927222604 90 64 1.0 7.0 0.00 0.00 0.00 21 1018.0
20220927222505 90 65 1.0 7.0 0.00 0.00 0.00 21 1018.0
20220927222404 91 64 0.0 7.0 0.00 0.00 0.00 21 1018.0
20220927222305 91 65 0.0 7.0 0.00 0.00 0.00 21 1018.0
20220927222104 91 65 0.0 7.0 0.00 0.00 0.00 21 1018.0
20220927222004 91 66 0.0 7.0 0.00 0.00 0.00 21 1017.9
20220927221904 91 64 0.0 7.0 0.00 0.00 0.00 21 1017.9
20220927221604 90 56 0.0 2.0 0.00 0.00 0.00 22 1017.9
20220927221505 90 55 0.0 2.0 0.00 0.00 0.00 22 1017.9
20220927221404 90 54 1.0 2.0 0.00 0.00 0.00 21 1017.9
20220927221304 90 47 1.0 10.0 0.00 0.00 0.00 21 1017.9
20220927221104 90 52 1.0 10.0 0.00 0.00 0.00 21 1018.0
20220927220904 91 54 1.0 10.0 0.00 0.00 0.00 21 1017.9
20220927220804 91 54 1.0 10.0 0.00 0.00 0.00 21 1017.9
20220927220603 91 57 1.0 10.0 0.00 0.00 0.00 21 1017.9
20220927220504 91 58 1.0 10.0 0.00 0.00 0.00 20 1017.9
20220927220204 91 75 0.0 4.0 0.00 0.00 0.00 21 1017.9
20220927220004 91 80 0.0 4.0 0.00 0.00 0.00 20 1017.9
20220927215804 91 80 0.0 3.0 0.00 0.00 0.00 20 1017.9
20220927215704 91 80 0.0 3.0 0.00 0.00 0.00 20 1017.9
20220927215504 91 90 0.0 2.0 0.00 0.00 0.00 21 1017.9
20220927215404 91 92 0.0 2.0 0.00 0.00 0.00 21 1017.9
20220927215305 91 94 0.0 4.0 0.00 0.00 0.00 21 1017.8
20220927215203 91 86 0.0 6.0 0.00 0.00 0.00 21 1017.8
20220927215104 91 85 0.0 6.0 0.00 0.00 0.00 21 1017.9
20220927215004 91 85 0.0 6.0 0.00 0.00 0.00 21 1017.9
20220927214905 91 86 1.0 6.0 0.00 0.00 0.00 21 1017.9
20220927214804 91 87 1.0 6.0 0.00 0.00 0.00 21 1017.9
20220927214603 91 83 0.0 6.0 0.00 0.00 0.00 21 1017.9
20220927214404 91 82 0.0 6.0 0.00 0.00 0.00 21 1017.9
20220927214104 91 90 0.0 4.0 0.00 0.00 0.00 21 1017.8
20220927213904 91 90 0.0 4.0 0.00 0.00 0.00 20 1017.8
20220927213804 91 55 0.0 1.0 0.00 0.00 0.00 20 1017.9
20220927213704 91 72 0.0 1.0 0.00 0.00 0.00 20 1017.9
20220927213604 91 70 0.0 1.0 0.00 0.00 0.00 20 1017.9
20220927213404 91 78 0.0 5.0 0.00 0.00 0.00 20 1017.9
20220927213304 91 78 0.0 5.0 0.00 0.00 0.00 20 1017.9
20220927213104 91 75 0.0 5.0 0.00 0.00 0.00 20 1018.0
20220927213004 91 74 0.0 5.0 0.00 0.00 0.00 20 1017.9
20220927212904 91 69 0.0 10.0 0.00 0.00 0.00 20 1017.9
20220927212804 91 69 0.0 10.0 0.00 0.00 0.00 20 1018.0
20220927212604 91 68 0.0 10.0 0.00 0.00 0.00 20 1017.9
20220927212404 91 61 1.0 10.0 0.00 0.00 0.00 20 1017.9
20220927212204 91 63 1.0 10.0 0.00 0.00 0.00 20 1018.0
20220927212004 91 63 1.0 10.0 0.00 0.00 0.00 20 1018.0
20220927211904 91 65 0.0 4.0 0.00 0.00 0.00 20 1018.0
20220927211604 91 65 0.0 4.0 0.00 0.00 0.00 21 1018.0
20220927211505 91 67 0.0 3.0 0.00 0.00 0.00 21 1018.0
20220927211404 91 66 0.0 3.0 0.00 0.00 0.00 20 1018.0
20220927211304 91 57 0.0 3.0 0.00 0.00 0.00 20 1017.9
20220927211203 91 57 0.0 3.0 0.00 0.00 0.00 20 1017.9
20220927210803 91 61 0.0 2.0 0.00 0.00 0.00 20 1018.0
20220927210704 91 64 0.0 2.0 0.00 0.00 0.00 20 1018.0
20220927210504 91 69 0.0 3.0 0.00 0.00 0.00 20 1018.0
20220927210403 91 71 0.0 3.0 0.00 0.00 0.00 21 1018.0
20220927210304 91 71 0.0 3.0 0.00 0.00 0.00 20 1018.0
20220927210204 91 74 0.0 3.0 0.00 0.00 0.00 21 1018.0
20220927210104 91 76 0.0 3.0 0.00 0.00 0.00 21 1018.0
20220927210004 91 77 0.0 3.0 0.00 0.00 0.00 21 1018.1
20220927205904 91 77 0.0 3.0 0.00 0.00 0.00 21 1018.0
20220927205804 91 81 0.0 3.0 0.00 0.00 0.00 20 1018.1
20220927205704 91 80 0.0 3.0 0.00 0.00 0.00 20 1018.1
20220927205504 91 82 0.0 1.0 0.00 0.00 0.00 21 1018.1
20220927205305 91 79 0.0 1.0 0.00 0.00 0.00 20 1018.0
20220927205204 91 49 0.0 4.0 0.00 0.00 0.00 21 1018.1
20220927205104 91 47 0.0 4.0 0.00 0.00 0.00 20 1018.1
20220927205004 91 45 0.0 4.0 0.00 0.00 0.00 20 1018.1
20220927204804 91 44 0.0 4.0 0.00 0.00 0.00 21 1018.1
20220927204704 91 44 0.0 4.0 0.00 0.00 0.00 21 1018.1
20220927204604 91 48 0.0 4.0 0.00 0.00 0.00 20 1018.2
20220927204004 91 67 0.0 4.0 0.00 0.00 0.00 20 1018.2
20220927203904 91 67 0.0 4.0 0.00 0.00 0.00 21 1018.2
20220927203803 91 67 0.0 4.0 0.00 0.00 0.00 21 1018.2
20220927203504 92 65 1.0 5.0 0.00 0.00 0.00 20 1018.3
20220927203403 92 62 1.0 5.0 0.00 0.00 0.00 20 1018.3
20220927203304 92 64 1.0 5.0 0.00 0.00 0.00 20 1018.3
20220927203104 92 61 0.0 5.0 0.00 0.00 0.00 21 1018.3
20220927203004 92 62 0.0 5.0 0.00 0.00 0.00 21 1018.3
20220927202904 91 62 0.0 5.0 0.00 0.00 0.00 21 1018.3
20220927202704 91 62 0.0 5.0 0.00 0.00 0.00 20 1018.3
20220927202604 91 62 0.0 5.0 0.00 0.00 0.00 20 1018.4
20220927202504 91 63 0.0 5.0 0.00 0.00 0.00 20 1018.4
20220927202403 91 68 0.0 5.0 0.00 0.00 0.00 20 1018.3
20220927202306 91 66 0.0 3.0 0.00 0.00 0.00 19 1018.3
20220927202204 91 67 0.0 3.0 0.00 0.00 0.00 20 1018.3
20220927202004 91 67 0.0 3.0 0.00 0.00 0.00 20 1018.5
20220927201804 91 68 0.0 3.0 0.00 0.00 0.00 20 1018.5
20220927201704 91 66 0.0 3.0 0.00 0.00 0.00 20 1018.5
20220927201604 92 64 0.0 3.0 0.00 0.00 0.00 20 1018.5
20220927201504 92 58 0.0 2.0 0.00 0.00 0.00 20 1018.5
20220927201404 92 56 0.0 2.0 0.00 0.00 0.00 20 1018.5
20220927201304 92 54 0.0 2.0 0.00 0.00 0.00 20 1018.4
20220927201203 92 61 0.0 5.0 0.00 0.00 0.00 20 1018.4
20220927201104 92 61 0.0 5.0 0.00 0.00 0.00 20 1018.5
20220927201004 91 61 0.0 5.0 0.00 0.00 0.00 20 1018.5
20220927200804 92 62 0.0 5.0 0.00 0.00 0.00 20 1018.6
20220927200704 92 62 0.0 5.0 0.00 0.00 0.00 20 1018.6
20220927200604 92 66 0.0 5.0 0.00 0.00 0.00 20 1018.6
20220927200504 91 67 0.0 5.0 0.00 0.00 0.00 21 1018.6
20220927200404 91 67 0.0 5.0 0.00 0.00 0.00 20 1018.6
20220927200203 91 69 0.0 4.0 0.00 0.00 0.00 22 1018.7
20220927200104 91 73 0.0 5.0 0.00 0.00 0.00 21 1018.6
20220927195704 91 73 0.0 5.0 0.00 0.00 0.00 20 1018.7
20220927195603 91 73 0.0 5.0 0.00 0.00 0.00 20 1018.8
20220927195504 91 72 0.0 5.0 0.00 0.00 0.00 21 1018.8
20220927195404 91 72 0.0 5.0 0.00 0.00 0.00 20 1018.8
20220927195305 91 74 0.0 5.0 0.00 0.00 0.00 21 1018.9
20220927195203 91 73 0.0 5.0 0.00 0.00 0.00 21 1018.9
20220927195104 91 42 0.0 2.0 0.00 0.00 0.00 20 1018.9
20220927195004 91 56 0.0 3.0 0.00 0.00 0.00 19 1018.9
20220927194904 91 66 0.0 4.0 0.00 0.00 0.00 21 1018.9
20220927194804 91 68 0.0 4.0 0.00 0.00 0.00 20 1018.9
20220927194704 91 76 1.0 5.0 0.00 0.00 0.00 20 1018.9
20220927194304 91 77 1.0 9.0 0.00 0.00 0.00 20 1019.0
20220927194204 91 77 1.0 9.0 0.00 0.00 0.00 20 1019.0
20220927194103 92 78 1.0 9.0 0.00 0.00 0.00 20 1019.0
20220927193904 92 81 0.0 9.0 0.00 0.00 0.00 20 1019.0
20220927193803 92 82 0.0 9.0 0.00 0.00 0.00 20 1019.0
20220927193704 92 77 0.0 9.0 0.00 0.00 0.00 20 1019.0
20220927193604 92 71 0.0 9.0 0.00 0.00 0.00 21 1018.9
20220927193403 92 17 0.0 1.0 0.00 0.00 0.00 22 1018.9
20220927193304 91 337 0.0 1.0 0.00 0.00 0.00 21 1019.0
20220927193004 91 14 0.0 2.0 0.00 0.00 0.00 21 1019.0
20220927192904 91 22 0.0 2.0 0.00 0.00 0.00 22 1019.0
20220927192803 91 27 0.0 2.0 0.00 0.00 0.00 22 1019.0
20220927192704 91 37 0.0 2.0 0.00 0.00 0.00 22 1019.0
20220927192604 91 37 0.0 2.0 0.00 0.00 0.00 22 1019.1
20220927192504 90 37 0.0 2.0 0.00 0.00 0.00 22 1019.2
20220927192404 90 38 0.0 2.0 0.00 0.00 0.00 21 1019.2
20220927192204 90 62 0.0 2.0 0.00 0.00 0.00 22 1019.1
20220927192104 90 63 0.0 2.0 0.00 0.00 0.00 21 1019.2
20220927192004 90 59 0.0 2.0 0.00 0.00 0.00 22 1019.2
20220927191904 90 58 0.0 2.0 0.00 0.00 0.00 22 1019.2
20220927191803 90 56 0.0 2.0 0.00 0.00 0.00 22 1019.2
20220927191604 90 51 0.0 2.0 0.00 0.00 0.00 22 1019.3
20220927191404 90 61 0.0 2.0 0.00 0.00 0.00 23 1019.3
20220927191304 90 57 0.0 2.0 0.00 0.00 0.00 24 1019.3
20220927191203 90 55 0.0 2.0 0.00 0.00 0.00 22 1019.3
20220927191104 90 55 0.0 2.0 0.00 0.00 0.00 23 1019.3
20220927191004 90 57 0.0 2.0 0.00 0.00 0.00 22 1019.4
20220927190903 90 60 0.0 2.0 0.00 0.00 0.00 23 1019.3
20220927190804 90 57 0.0 3.0 0.00 0.00 0.00 22 1019.4
20220927190503 90 50 0.0 3.0 0.00 0.00 0.00 23 1019.5
20220927190204 90 38 0.0 3.0 0.00 0.00 0.00 23 1019.6
20220927190105 90 38 0.0 3.0 0.00 0.00 0.00 22 1019.6
20220927190004 90 38 0.0 3.0 0.00 0.00 0.00 22 1019.7
20220927185904 90 38 0.0 3.0 0.00 0.00 0.00 23 1019.6
20220927185803 90 38 0.0 3.0 0.00 0.00 0.00 22 1019.7
20220927185704 90 37 0.0 3.0 0.00 0.00 0.00 22 1019.7
20220927185503 90 63 0.0 1.0 0.00 0.00 0.00 24 1019.7
20220927185305 90 66 0.0 2.0 0.00 0.00 0.00 23 1019.7
20220927185203 89 61 0.0 2.0 0.00 0.00 0.00 22 1019.8
20220927185004 89 65 0.0 3.0 0.00 0.00 0.00 22 1019.8
20220927184604 89 45 0.0 9.0 0.00 0.00 0.00 22 1019.8
20220927184504 89 45 0.0 9.0 0.00 0.00 0.00 22 1019.9
20220927184404 89 45 1.0 9.0 0.00 0.00 0.00 23 1019.9
20220927184104 89 41 1.0 9.0 0.00 0.00 0.00 23 1019.9
20220927183904 89 43 0.0 9.0 0.00 0.00 0.00 23 1020.0
20220927183803 89 46 0.0 9.0 0.00 0.00 0.00 22 1020.0
20220927183704 89 39 0.0 9.0 0.00 0.00 0.00 23 1020.0
20220927183604 89 43 0.0 4.0 0.00 0.00 0.00 22 1020.0
20220927183104 89 68 0.0 5.0 0.00 0.00 0.00 23 1020.1
20220927182904 89 72 0.0 5.0 0.00 0.00 0.00 23 1020.1
20220927182804 89 72 0.0 5.0 0.00 0.00 0.00 23 1020.1
20220927182504 89 72 1.0 5.0 0.00 0.00 0.00 23 1020.2
20220927182404 89 72 1.0 5.0 0.00 0.00 0.00 23 1020.2
20220927182305 89 73 1.0 5.0 0.00 0.00 0.00 23 1020.2
20220927182104 89 70 0.0 3.0 0.00 0.00 0.00 22 1020.2
20220927182003 89 70 0.0 3.0 0.00 0.00 0.00 22 1020.2
20220927181804 89 72 0.0 3.0 0.00 0.00 0.00 22 1020.2
20220927181603 89 73 0.0 3.0 0.00 0.00 0.00 22 1020.3
20220927181404 89 70 0.0 3.0 0.00 0.00 0.00 22 1020.2
20220927181303 89 65 0.0 3.0 0.00 0.00 0.00 22 1020.3
20220927181203 89 63 0.0 3.0 0.00 0.00 0.00 22 1020.3
20220927180903 90 63 0.0 3.0 0.00 0.00 0.00 22 1020.3
20220927180803 90 60 0.0 5.0 0.00 0.00 0.00 21 1020.3
20220927180704 90 58 0.0 5.0 0.00 0.00 0.00 21 1020.4
20220927180304 89 51 0.0 5.0 0.00 0.00 0.00 22 1020.4
20220927180204 89 51 0.0 5.0 0.00 0.00 0.00 21 1020.3
20220927180004 89 51 0.0 5.0 0.00 0.00 0.00 23 1020.3
20220927175904 89 40 0.0 5.0 0.00 0.00 0.00 21 1020.4
20220927175803 89 27 0.0 2.0 0.00 0.00 0.00 21 1020.4
20220927175704 89 27 0.0 2.0 0.00 0.00 0.00 22 1020.4
20220927175604 89 27 0.0 2.0 0.00 0.00 0.00 22 1020.4
20220927175403 89 31 0.0 1.0 0.00 0.00 0.00 23 1020.4
20220927175204 89 35 0.0 1.0 0.00 0.00 0.00 24 1020.4
20220927175103 89 35 0.0 1.0 0.00 0.00 0.00 22 1020.4
20220927174904 89 36 0.0 1.0 0.00 0.00 0.00 23 1020.5
20220927174803 89 36 0.0 1.0 0.00 0.00 0.00 22 1020.5
20220927174504 89 31 0.0 1.0 0.00 0.00 0.00 21 1020.5
20220927174403 89 31 0.0 1.0 0.00 0.00 0.00 21 1020.5
20220927174304 89 30 0.0 1.0 0.00 0.00 0.00 21 1020.5
20220927174204 89 27 0.0 1.0 0.00 0.00 0.00 22 1020.5
20220927174103 89 27 0.0 1.0 0.00 0.00 0.00 24 1020.5
20220927174004 89 353 0.0 1.0 0.00 0.00 0.00 23 1020.5
20220927173904 89 353 0.0 1.0 0.00 0.00 0.00 23 1020.5
20220927173703 89 353 0.0 1.0 0.00 0.00 0.00 22 1020.5
20220927173604 89 30 0.0 1.0 0.00 0.00 0.00 24 1020.5
20220927173504 89 30 0.0 1.0 0.00 0.00 0.00 24 1020.5
20220927173204 89 30 0.0 1.0 0.00 0.00 0.00 25 1020.5
20220927173103 89 30 0.0 1.0 0.00 0.00 0.00 25 1020.6
20220927173003 89 30 0.0 1.0 0.00 0.00 0.00 24 1020.6
20220927172804 89 30 0.0 1.0 0.00 0.00 0.00 24 1020.6
20220927172704 89 30 0.0 1.0 0.00 0.00 0.00 24 1020.7
20220927172504 89 0 0.0 0.0 0.00 0.00 0.00 25 1020.6
20220927172403 89 0 0.0 0.0 0.00 0.00 0.00 24 1020.7
20220927172304 89 0 0.0 0.0 0.00 0.00 0.00 24 1020.7
20220927172003 89 0 0.0 0.0 0.00 0.00 0.00 24 1020.8
20220927171904 89 0 0.0 0.0 0.00 0.00 0.00 25 1020.8
20220927171704 89 0 0.0 0.0 0.00 0.00 0.00 23 1020.8
20220927171603 89 0 0.0 0.0 0.00 0.00 0.00 23 1020.8
20220927171203 89 0 0.0 0.0 0.00 0.00 0.00 26 1020.8
20220927170904 89 0 0.0 0.0 0.00 0.00 0.00 23 1020.8
20220927170704 89 0 0.0 0.0 0.00 0.00 0.00 24 1020.9
20220927170604 89 0 0.0 0.0 0.00 0.00 0.00 23 1020.9
20220927170503 89 0 0.0 0.0 0.00 0.00 0.00 26 1020.9
20220927170304 88 0 0.0 0.0 0.00 0.00 0.00 25 1021.0
20220927170203 88 0 0.0 0.0 0.00 0.00 0.00 24 1021.0
20220927170103 88 0 0.0 0.0 0.00 0.00 0.00 25 1021.0
20220927170004 88 0 0.0 0.0 0.00 0.00 0.00 24 1021.0
20220927165904 88 0 0.0 0.0 0.00 0.00 0.00 24 1021.0
20220927165803 88 0 0.0 0.0 0.00 0.00 0.00 27 1021.0
20220927165604 88 0 0.0 0.0 0.00 0.00 0.00 26 1021.0
20220927165403 88 0 0.0 0.0 0.00 0.00 0.00 25 1021.0
20220927165305 88 0 0.0 0.0 0.00 0.00 0.00 25 1021.0
20220927165203 88 0 0.0 0.0 0.00 0.00 0.00 25 1021.1
20220927165004 88 0 0.0 0.0 0.00 0.00 0.00 24 1021.1
20220927164903 88 0 0.0 0.0 0.00 0.00 0.00 24 1021.1
20220927164803 88 0 0.0 0.0 0.00 0.00 0.00 25 1021.1
20220927164604 87 0 0.0 0.0 0.00 0.00 0.00 26 1021.1
20220927164403 87 0 0.0 0.0 0.00 0.00 0.00 26 1021.1
20220927164304 87 0 0.0 0.0 0.00 0.00 0.00 26 1021.1
20220927164203 87 0 0.0 0.0 0.00 0.00 0.00 26 1021.1
20220927164104 87 0 0.0 0.0 0.00 0.00 0.00 27 1021.1
20220927163903 87 0 0.0 0.0 0.00 0.00 0.00 27 1021.1
20220927163604 86 0 0.0 0.0 0.00 0.00 0.00 27 1021.1
20220927163503 86 0 0.0 0.0 0.00 0.00 0.00 26 1021.1
20220927163304 86 0 0.0 0.0 0.00 0.00 0.00 27 1021.1
20220927163003 86 0 0.0 0.0 0.00 0.00 0.00 27 1021.1
20220927162803 86 0 0.0 0.0 0.00 0.00 0.00 29 1021.1
20220927162603 86 0 0.0 0.0 0.00 0.00 0.00 28 1021.2
20220927162203 85 0 0.0 0.0 0.00 0.00 0.00 28 1021.2
20220927162104 85 0 0.0 0.0 0.00 0.00 0.00 28 1021.2
20220927162003 85 0 0.0 0.0 0.00 0.00 0.00 28 1021.2
20220927161904 85 0 0.0 0.0 0.00 0.00 0.00 28 1021.3
20220927161504 85 0 0.0 0.0 0.00 0.00 0.00 28 1021.3
20220927161404 85 0 0.0 0.0 0.00 0.00 0.00 28 1021.3
20220927161203 85 0 0.0 0.0 0.00 0.00 0.00 28 1021.2
20220927161104 85 0 0.0 0.0 0.00 0.00 0.00 28 1021.2
20220927161003 85 0 0.0 0.0 0.00 0.00 0.00 30 1021.2
20220927160704 85 0 0.0 0.0 0.00 0.00 0.00 28 1021.2
20220927160506 85 0 0.0 0.0 0.00 0.00 0.00 29 1021.2
20220927160406 85 0 0.0 0.0 0.00 0.00 0.00 28 1021.2
20220927160305 85 0 0.0 0.0 0.00 0.00 0.00 28 1021.2
20220927160205 85 0 0.0 0.0 0.00 0.00 0.00 28 1021.2
20220927160006 85 0 0.0 0.0 0.00 0.00 0.00 29 1021.2
20220927155905 85 0 0.0 0.0 0.00 0.00 0.00 28 1021.2
20220927155806 85 0 0.0 0.0 0.00 0.00 0.00 29 1021.2
20220927155306 84 0 0.0 0.0 0.00 0.00 0.00 29 1021.3
20220927155205 84 0 0.0 0.0 0.00 0.00 0.00 29 1021.3
20220927155105 84 0 0.0 0.0 0.00 0.00 0.00 29 1021.2
20220927155006 84 0 0.0 0.0 0.00 0.00 0.00 28 1021.3
20220927154905 84 0 0.0 0.0 0.00 0.00 0.00 29 1021.3
20220927154605 84 0 0.0 0.0 0.00 0.00 0.00 29 1021.2
20220927154505 84 0 0.0 0.0 0.00 0.00 0.00 29 1021.3
20220927154405 84 0 0.0 0.0 0.00 0.00 0.00 29 1021.2
20220927154306 84 0 0.0 0.0 0.00 0.00 0.00 30 1021.2
20220927154205 84 0 0.0 0.0 0.00 0.00 0.00 29 1021.2
20220927154106 84 0 0.0 0.0 0.00 0.00 0.00 29 1021.2
20220927153606 83 0 0.0 0.0 0.00 0.00 0.00 30 1021.1
20220927153505 83 0 0.0 0.0 0.00 0.00 0.00 30 1021.1
20220927153405 83 0 0.0 0.0 0.00 0.00 0.00 31 1021.1
20220927153106 83 0 0.0 0.0 0.00 0.00 0.00 31 1021.1
20220927152905 82 0 0.0 0.0 0.00 0.00 0.00 31 1021.1
20220927152806 82 0 0.0 0.0 0.00 0.00 0.00 31 1021.0
20220927152705 82 0 0.0 0.0 0.00 0.00 0.00 32 1021.0
20220927152406 82 0 0.0 0.0 0.00 0.00 0.00 31 1021.0
20220927152306 82 0 0.0 0.0 0.00 0.00 0.00 31 1021.1
20220927152106 82 0 0.0 0.0 0.00 0.00 0.00 31 1021.1
20220927151905 81 0 0.0 0.0 0.00 0.00 0.00 31 1021.0
20220927151706 81 0 0.0 0.0 0.00 0.00 0.00 32 1021.1
20220927151505 81 0 0.0 0.0 0.00 0.00 0.00 32 1021.0
20220927151406 81 0 0.0 0.0 0.00 0.00 0.00 31 1021.0
20220927151306 81 0 0.0 0.0 0.00 0.00 0.00 31 1021.0
20220927151205 80 0 0.0 0.0 0.00 0.00 0.00 32 1021.0
20220927151106 80 0 0.0 0.0 0.00 0.00 0.00 32 1021.0
20220927150805 80 0 0.0 0.0 0.00 0.00 0.00 33 1021.0
20220927150706 80 0 0.0 0.0 0.00 0.00 0.00 34 1021.0
20220927150605 80 0 0.0 0.0 0.00 0.00 0.00 33 1021.0
20220927150405 80 0 0.0 0.0 0.00 0.00 0.00 33 1021.0
20220927150006 79 0 0.0 0.0 0.00 0.00 0.00 33 1021.0
20220927145605 78 0 0.0 0.0 0.00 0.00 0.00 34 1021.0
20220927145506 78 0 0.0 0.0 0.00 0.00 0.00 33 1020.9
20220927145405 78 0 0.0 0.0 0.00 0.00 0.00 33 1020.9
20220927145306 78 0 0.0 0.0 0.00 0.00 0.00 33 1020.9
20220927145206 78 0 0.0 0.0 0.00 0.00 0.00 34 1020.9
20220927145005 78 0 0.0 0.0 0.00 0.00 0.00 35 1020.8
20220927144805 77 0 0.0 0.0 0.00 0.00 0.00 36 1020.8
20220927144405 77 0 0.0 0.0 0.00 0.00 0.00 37 1020.8
20220927144305 77 0 0.0 0.0 0.00 0.00 0.00 36 1020.7
20220927144106 76 0 0.0 0.0 0.00 0.00 0.00 36 1020.7
20220927144005 76 0 0.0 0.0 0.00 0.00 0.00 37 1020.8
20220927143906 76 0 0.0 0.0 0.00 0.00 0.00 37 1020.8
20220927143806 76 0 0.0 0.0 0.00 0.00 0.00 38 1020.8
20220927143705 76 0 0.0 0.0 0.00 0.00 0.00 38 1020.8
20220927143605 76 0 0.0 0.0 0.00 0.00 0.00 38 1020.7
20220927143506 75 0 0.0 0.0 0.00 0.00 0.00 38 1020.8
20220927143305 75 0 0.0 0.0 0.00 0.00 0.00 38 1020.7
20220927143206 75 0 0.0 0.0 0.00 0.00 0.00 38 1020.7
20220927143105 75 0 0.0 0.0 0.00 0.00 0.00 39 1020.7
20220927142905 74 0 0.0 0.0 0.00 0.00 0.00 40 1020.6
20220927142605 74 0 0.0 0.0 0.00 0.00 0.00 40 1020.6
20220927142506 74 0 0.0 0.0 0.00 0.00 0.00 40 1020.6
20220927142405 73 0 0.0 0.0 0.00 0.00 0.00 40 1020.6
20220927141905 72 0 0.0 0.0 0.00 0.00 0.00 42 1020.6
20220927141805 72 0 0.0 0.0 0.00 0.00 0.00 43 1020.5
20220927141605 72 0 0.0 0.0 0.00 0.00 0.00 42 1020.6
20220927141405 72 0 0.0 0.0 0.00 0.00 0.00 43 1020.6
20220927141105 71 0 0.0 0.0 0.00 0.00 0.00 44 1020.5
20220927140906 71 0 0.0 0.0 0.00 0.00 0.00 45 1020.5
20220927140805 71 0 0.0 0.0 0.00 0.00 0.00 45 1020.5
20220927140705 71 0 0.0 0.0 0.00 0.00 0.00 45 1020.5
20220927140605 70 0 0.0 0.0 0.00 0.00 0.00 45 1020.5
20220927140505 70 0 0.0 0.0 0.00 0.00 0.00 45 1020.5
20220927140306 70 0 0.0 0.0 0.00 0.00 0.00 46 1020.4
20220927140205 70 0 0.0 0.0 0.00 0.00 0.00 46 1020.4
20220927140105 69 0 0.0 0.0 0.00 0.00 0.00 46 1020.5
20220927140005 69 0 0.0 0.0 0.00 0.00 0.00 46 1020.4
20220927135906 69 0 0.0 0.0 0.00 0.00 0.00 46 1020.4
20220927135805 69 0 0.0 0.0 0.00 0.00 0.00 47 1020.4
20220927135506 68 0 0.0 0.0 0.00 0.00 0.00 47 1020.4
20220927135305 68 0 0.0 0.0 0.00 0.00 0.00 48 1020.4
20220927135206 68 0 0.0 0.0 0.00 0.00 0.00 48 1020.4
20220927135105 68 0 0.0 0.0 0.00 0.00 0.00 48 1020.4
20220927135005 68 0 0.0 0.0 0.00 0.00 0.00 49 1020.4
20220927134906 67 0 0.0 0.0 0.00 0.00 0.00 49 1020.3
20220927134705 67 0 0.0 0.0 0.00 0.00 0.00 49 1020.4
20220927134606 67 0 0.0 0.0 0.00 0.00 0.00 49 1020.4
20220927134505 67 0 0.0 0.0 0.00 0.00 0.00 49 1020.4
20220927134405 66 0 0.0 0.0 0.00 0.00 0.00 50 1020.3
20220927134206 66 0 0.0 0.0 0.00 0.00 0.00 50 1020.3
20220927134105 66 0 0.0 0.0 0.00 0.00 0.00 50 1020.3
20220927134005 66 0 0.0 0.0 0.00 0.00 0.00 50 1020.3
20220927133906 66 0 0.0 0.0 0.00 0.00 0.00 51 1020.3
20220927133805 66 0 0.0 0.0 0.00 0.00 0.00 51 1020.3
20220927133705 66 0 0.0 0.0 0.00 0.00 0.00 51 1020.3
20220927133605 65 0 0.0 0.0 0.00 0.00 0.00 52 1020.3
20220927133405 65 0 0.0 0.0 0.00 0.00 0.00 52 1020.3
20220927133205 65 0 0.0 0.0 0.00 0.00 0.00 52 1020.3
20220927133105 65 0 0.0 0.0 0.00 0.00 0.00 52 1020.3
20220927132906 65 0 0.0 0.0 0.00 0.00 0.00 52 1020.3
20220927132605 64 0 0.0 0.0 0.00 0.00 0.00 52 1020.3
20220927132506 64 0 0.0 0.0 0.00 0.00 0.00 51 1020.2
20220927132205 64 0 0.0 0.0 0.00 0.00 0.00 51 1020.2
20220927132106 64 0 0.0 0.0 0.00 0.00 0.00 51 1020.2
20220927132005 64 0 0.0 0.0 0.00 0.00 0.00 51 1020.2
20220927131905 64 0 0.0 0.0 0.00 0.00 0.00 51 1020.2
20220927131706 64 0 0.0 0.0 0.00 0.00 0.00 51 1020.2
20220927131505 64 0 0.0 0.0 0.00 0.00 0.00 51 1020.2
20220927131406 64 0 0.0 0.0 0.00 0.00 0.00 51 1020.2
20220927131305 64 0 0.0 0.0 0.00 0.00 0.00 51 1020.1
20220927130905 63 0 0.0 0.0 0.00 0.00 0.00 51 1020.1
20220927130205 63 0 0.0 0.0 0.00 0.00 0.00 50 1020.0
20220927130105 63 0 0.0 0.0 0.00 0.00 0.00 51 1020.0
20220927130006 63 0 0.0 0.0 0.00 0.00 0.00 50 1020.0
20220927125905 63 0 0.0 0.0 0.00 0.00 0.00 51 1019.9
20220927125805 63 0 0.0 0.0 0.00 0.00 0.00 50 1019.9
20220927125605 63 0 0.0 0.0 0.00 0.00 0.00 51 1019.9
20220927125505 63 0 0.0 0.0 0.00 0.00 0.00 51 1019.9
20220927125406 63 0 0.0 0.0 0.00 0.00 0.00 51 1019.9
20220927125205 62 0 0.0 0.0 0.00 0.00 0.00 51 1019.9
20220927125105 62 0 0.0 0.0 0.00 0.00 0.00 51 1019.9
20220927125006 62 0 0.0 0.0 0.00 0.00 0.00 51 1019.9
20220927124905 62 0 0.0 0.0 0.00 0.00 0.00 51 1019.9
20220927124805 62 0 0.0 0.0 0.00 0.00 0.00 51 1019.9
20220927124505 62 0 0.0 0.0 0.00 0.00 0.00 51 1019.9
20220927124405 62 0 0.0 0.0 0.00 0.00 0.00 51 1019.8
20220927124205 62 0 0.0 0.0 0.00 0.00 0.00 51 1019.8
20220927124006 62 0 0.0 0.0 0.00 0.00 0.00 51 1019.8
20220927123905 62 0 0.0 0.0 0.00 0.00 0.00 50 1019.8
20220927123805 62 0 0.0 0.0 0.00 0.00 0.00 50 1019.7
20220927123706 62 0 0.0 0.0 0.00 0.00 0.00 51 1019.8
20220927123605 62 0 0.0 0.0 0.00 0.00 0.00 51 1019.7
20220927123406 62 0 0.0 0.0 0.00 0.00 0.00 50 1019.7
20220927123305 62 0 0.0 0.0 0.00 0.00 0.00 51 1019.7
20220927123205 62 0 0.0 0.0 0.00 0.00 0.00 51 1019.7
20220927123106 62 0 0.0 0.0 0.00 0.00 0.00 50 1019.6
20220927122806 62 0 0.0 0.0 0.00 0.00 0.00 51 1019.7
20220927122705 62 0 0.0 0.0 0.00 0.00 0.00 50 1019.6
20220927122605 62 0 0.0 0.0 0.00 0.00 0.00 51 1019.7
20220927122505 62 0 0.0 0.0 0.00 0.00 0.00 51 1019.7
20220927122405 62 0 0.0 0.0 0.00 0.00 0.00 51 1019.7
20220927122305 62 0 0.0 0.0 0.00 0.00 0.00 50 1019.6
20220927122105 62 0 0.0 0.0 0.00 0.00 0.00 50 1019.6
20220927122005 62 0 0.0 0.0 0.00 0.00 0.00 50 1019.6
20220927121905 63 0 0.0 0.0 0.00 0.00 0.00 50 1019.6
20220927121605 62 0 0.0 0.0 0.00 0.00 0.00 50 1019.6
20220927121505 63 0 0.0 0.0 0.00 0.00 0.00 50 1019.6
20220927121405 62 0 0.0 0.0 0.00 0.00 0.00 50 1019.5
20220927121205 63 0 0.0 0.0 0.00 0.00 0.00 50 1019.5
20220927120905 63 0 0.0 0.0 0.00 0.00 0.00 50 1019.4
20220927120606 63 0 0.0 0.0 0.00 0.00 0.00 50 1019.5
20220927120505 63 0 0.0 0.0 0.00 0.00 0.00 50 1019.4
20220927120405 63 0 0.0 0.0 0.00 0.00 0.00 50 1019.5
20220927120305 63 0 0.0 0.0 0.00 0.00 0.00 50 1019.4
20220927120105 63 0 0.0 0.0 0.00 0.00 0.00 50 1019.4
20220927115906 63 0 0.0 0.0 0.00 0.00 0.00 50 1019.5
20220927115805 63 0 0.0 0.0 0.00 0.00 0.00 50 1019.5
20220927115705 63 0 0.0 0.0 0.00 0.00 0.00 50 1019.4
20220927115606 63 0 0.0 0.0 0.00 0.00 0.00 50 1019.5
20220927115405 63 0 0.0 0.0 0.00 0.00 0.00 50 1019.4
20220927115306 63 0 0.0 0.0 0.00 0.00 0.00 50 1019.4
20220927115205 63 0 0.0 0.0 0.00 0.00 0.00 50 1019.4
20220927115105 63 0 0.0 0.0 0.00 0.00 0.00 50 1019.3
20220927115006 63 0 0.0 0.0 0.00 0.00 0.00 50 1019.4
20220927114805 63 0 0.0 0.0 0.00 0.00 0.00 50 1019.4
20220927114606 63 0 0.0 0.0 0.00 0.00 0.00 50 1019.3
20220927114505 63 0 0.0 0.0 0.00 0.00 0.00 50 1019.3
20220927114405 62 0 0.0 0.0 0.00 0.00 0.00 50 1019.2
20220927114306 62 0 0.0 0.0 0.00 0.00 0.00 50 1019.2
20220927114205 62 0 0.0 0.0 0.00 0.00 0.00 50 1019.2
20220927114105 62 0 0.0 0.0 0.00 0.00 0.00 50 1019.2
20220927114006 62 0 0.0 0.0 0.00 0.00 0.00 50 1019.2
20220927113905 62 0 0.0 0.0 0.00 0.00 0.00 50 1019.2
20220927113805 62 0 0.0 0.0 0.00 0.00 0.00 50 1019.2
20220927113705 62 0 0.0 0.0 0.00 0.00 0.00 50 1019.2
20220927113505 62 0 0.0 0.0 0.00 0.00 0.00 50 1019.2
20220927113306 62 0 0.0 0.0 0.00 0.00 0.00 50 1019.1
20220927113205 62 0 0.0 0.0 0.00 0.00 0.00 50 1019.1
20220927113005 62 0 0.0 0.0 0.00 0.00 0.00 50 1019.1
20220927112606 62 0 0.0 0.0 0.00 0.00 0.00 50 1019.1
20220927112305 62 0 0.0 0.0 0.00 0.00 0.00 50 1019.1
20220927112105 62 0 0.0 0.0 0.00 0.00 0.00 50 1019.0
20220927112005 62 0 0.0 0.0 0.00 0.00 0.00 50 1019.1
20220927111906 62 0 0.0 0.0 0.00 0.00 0.00 50 1019.1
20220927111805 62 0 0.0 0.0 0.00 0.00 0.00 50 1019.1
20220927111606 62 0 0.0 0.0 0.00 0.00 0.00 50 1019.0
20220927111505 63 0 0.0 0.0 0.00 0.00 0.00 50 1019.0
20220927111405 63 0 0.0 0.0 0.00 0.00 0.00 50 1019.0
20220927111304 63 0 0.0 0.0 0.00 0.00 0.00 50 1019.0
20220927111205 63 0 0.0 0.0 0.00 0.00 0.00 50 1019.0
20220927111105 63 0 0.0 0.0 0.00 0.00 0.00 50 1019.0
20220927110705 63 0 0.0 0.0 0.00 0.00 0.00 50 1018.9
20220927110606 63 0 0.0 0.0 0.00 0.00 0.00 50 1019.0
20220927110505 63 0 0.0 0.0 0.00 0.00 0.00 50 1018.9
20220927110405 63 0 0.0 0.0 0.00 0.00 0.00 50 1018.9
20220927110305 63 0 0.0 0.0 0.00 0.00 0.00 50 1018.8
20220927110205 63 0 0.0 0.0 0.00 0.00 0.00 50 1018.8
20220927110006 63 0 0.0 0.0 0.00 0.00 0.00 50 1018.8
20220927105905 63 0 0.0 0.0 0.00 0.00 0.00 50 1018.8
20220927105505 63 0 0.0 0.0 0.00 0.00 0.00 50 1018.7
20220927105405 63 0 0.0 0.0 0.00 0.00 0.00 50 1018.8
20220927105205 63 0 0.0 0.0 0.00 0.00 0.00 50 1018.8
20220927105005 63 0 0.0 0.0 0.00 0.00 0.00 50 1018.7
20220927104805 63 0 0.0 0.0 0.00 0.00 0.00 50 1018.7
20220927104606 63 0 0.0 0.0 0.00 0.00 0.00 50 1018.7
20220927104405 63 0 0.0 0.0 0.00 0.00 0.00 50 1018.8
20220927104205 63 0 0.0 0.0 0.00 0.00 0.00 50 1018.7
20220927104105 63 0 0.0 0.0 0.00 0.00 0.00 50 1018.8
20220927103805 63 0 0.0 0.0 0.00 0.00 0.00 50 1018.8
20220927103606 63 0 0.0 0.0 0.00 0.00 0.00 50 1018.8
20220927103305 63 0 0.0 0.0 0.00 0.00 0.00 50 1018.8
20220927103205 63 0 0.0 0.0 0.00 0.00 0.00 50 1018.7
20220927103105 63 0 0.0 0.0 0.00 0.00 0.00 50 1018.8
20220927102905 63 0 0.0 0.0 0.00 0.00 0.00 50 1018.8
20220927102805 63 0 0.0 0.0 0.00 0.00 0.00 50 1018.8
20220927102405 63 0 0.0 0.0 0.00 0.00 0.00 50 1018.8
20220927102306 63 0 0.0 0.0 0.00 0.00 0.00 50 1018.8
20220927102105 63 0 0.0 0.0 0.00 0.00 0.00 50 1018.7
20220927102005 63 0 0.0 0.0 0.00 0.00 0.00 50 1018.7
20220927101905 63 0 0.0 0.0 0.00 0.00 0.00 50 1018.7
20220927101805 63 0 0.0 0.0 0.00 0.00 0.00 50 1018.6
20220927101705 63 0 0.0 0.0 0.00 0.00 0.00 50 1018.6
20220927101605 63 0 0.0 0.0 0.00 0.00 0.00 50 1018.6
20220927101505 63 0 0.0 0.0 0.00 0.00 0.00 50 1018.6
20220927101405 63 0 0.0 0.0 0.00 0.00 0.00 50 1018.6
20220927101305 63 0 0.0 0.0 0.00 0.00 0.00 50 1018.6
20220927101205 63 0 0.0 0.0 0.00 0.00 0.00 50 1018.6
20220927101105 63 0 0.0 0.0 0.00 0.00 0.00 50 1018.6
20220927101005 63 0 0.0 0.0 0.00 0.00 0.00 50 1018.6
20220927100905 63 0 0.0 0.0 0.00 0.00 0.00 50 1018.6
20220927100805 63 0 0.0 0.0 0.00 0.00 0.00 50 1018.7
20220927100705 63 0 0.0 0.0 0.00 0.00 0.00 50 1018.6
20220927100605 63 0 0.0 0.0 0.00 0.00 0.00 50 1018.6
20220927100505 63 0 0.0 0.0 0.00 0.00 0.00 50 1018.6
20220927100405 63 0 0.0 0.0 0.00 0.00 0.00 50 1018.6
20220927100305 63 0 0.0 0.0 0.00 0.00 0.00 50 1018.6
20220927095805 63 0 0.0 0.0 0.00 0.00 0.00 50 1018.7
20220927095705 63 0 0.0 0.0 0.00 0.00 0.00 50 1018.7
20220927095605 63 0 0.0 0.0 0.00 0.00 0.00 50 1018.7
20220927095505 63 0 0.0 0.0 0.00 0.00 0.00 50 1018.7
20220927095405 63 0 0.0 0.0 0.00 0.00 0.00 50 1018.6
20220927095305 63 0 0.0 0.0 0.00 0.00 0.00 50 1018.6
20220927095205 63 0 0.0 0.0 0.00 0.00 0.00 50 1018.7
20220927095105 63 0 0.0 0.0 0.00 0.00 0.00 50 1018.6
20220927095005 63 0 0.0 0.0 0.00 0.00 0.00 50 1018.6
20220927094706 63 0 0.0 0.0 0.00 0.00 0.00 50 1018.6
20220927094605 63 0 0.0 0.0 0.00 0.00 0.00 50 1018.6
20220927094505 63 0 0.0 0.0 0.00 0.00 0.00 50 1018.6
20220927094305 63 0 0.0 0.0 0.00 0.00 0.00 50 1018.6
20220927093905 63 0 0.0 0.0 0.00 0.00 0.00 50 1018.6
20220927093805 63 0 0.0 0.0 0.00 0.00 0.00 50 1018.6
20220927093705 63 0 0.0 0.0 0.00 0.00 0.00 50 1018.6
20220927093505 63 0 0.0 0.0 0.00 0.00 0.00 50 1018.6
20220927093405 63 0 0.0 0.0 0.00 0.00 0.00 50 1018.6
20220927093105 63 0 0.0 0.0 0.00 0.00 0.00 50 1018.6
20220927093005 63 0 0.0 0.0 0.00 0.00 0.00 50 1018.6
20220927092804 63 0 0.0 0.0 0.00 0.00 0.00 50 1018.6
20220927092705 63 0 0.0 0.0 0.00 0.00 0.00 50 1018.6
20220927092605 63 0 0.0 0.0 0.00 0.00 0.00 50 1018.6
20220927092305 63 0 0.0 0.0 0.00 0.00 0.00 50 1018.6
20220927092105 63 0 0.0 0.0 0.00 0.00 0.00 50 1018.6
20220927092005 63 0 0.0 0.0 0.00 0.00 0.00 50 1018.6
20220927091706 63 0 0.0 0.0 0.00 0.00 0.00 50 1018.6
20220927091605 63 0 0.0 0.0 0.00 0.00 0.00 50 1018.6
20220927091404 63 0 0.0 0.0 0.00 0.00 0.00 50 1018.6
20220927091205 63 0 0.0 0.0 0.00 0.00 0.00 50 1018.5
20220927091005 63 0 0.0 0.0 0.00 0.00 0.00 50 1018.5
20220927090905 63 0 0.0 0.0 0.00 0.00 0.00 49 1018.5
20220927090805 63 0 0.0 0.0 0.00 0.00 0.00 49 1018.5
20220927090705 63 0 0.0 0.0 0.00 0.00 0.00 49 1018.5
20220927090605 63 0 0.0 0.0 0.00 0.00 0.00 49 1018.5
20220927090506 63 0 0.0 0.0 0.00 0.00 0.00 49 1018.5
20220927090405 63 0 0.0 0.0 0.00 0.00 0.00 49 1018.5
20220927090305 63 0 0.0 0.0 0.00 0.00 0.00 49 1018.4
20220927090005 63 0 0.0 0.0 0.00 0.00 0.00 50 1018.4
20220927085705 63 0 0.0 0.0 0.00 0.00 0.00 50 1018.4
20220927085605 63 0 0.0 0.0 0.00 0.00 0.00 50 1018.4
20220927085504 63 0 0.0 0.0 0.00 0.00 0.00 50 1018.4
20220927085305 63 0 0.0 0.0 0.00 0.00 0.00 50 1018.5
20220927085205 63 0 0.0 0.0 0.00 0.00 0.00 50 1018.4
20220927085105 63 0 0.0 0.0 0.00 0.00 0.00 50 1018.4
20220927085005 63 0 0.0 0.0 0.00 0.00 0.00 50 1018.4
20220927084905 63 0 0.0 0.0 0.00 0.00 0.00 50 1018.5
20220927084805 63 0 0.0 0.0 0.00 0.00 0.00 50 1018.4
20220927084705 63 0 0.0 0.0 0.00 0.00 0.00 50 1018.4
20220927084505 64 0 0.0 0.0 0.00 0.00 0.00 50 1018.4
20220927084405 64 0 0.0 0.0 0.00 0.00 0.00 50 1018.4
20220927084305 64 0 0.0 0.0 0.00 0.00 0.00 50 1018.4
20220927084205 64 0 0.0 0.0 0.00 0.00 0.00 50 1018.4
20220927083905 64 0 0.0 0.0 0.00 0.00 0.00 49 1018.4
20220927083805 64 0 0.0 0.0 0.00 0.00 0.00 49 1018.4
20220927083705 64 0 0.0 0.0 0.00 0.00 0.00 49 1018.4
20220927083604 64 0 0.0 0.0 0.00 0.00 0.00 49 1018.5
20220927083505 64 0 0.0 0.0 0.00 0.00 0.00 49 1018.4
20220927083305 64 0 0.0 0.0 0.00 0.00 0.00 49 1018.5
20220927083205 64 0 0.0 0.0 0.00 0.00 0.00 49 1018.5
20220927083105 64 0 0.0 0.0 0.00 0.00 0.00 49 1018.5
20220927082905 64 0 0.0 0.0 0.00 0.00 0.00 49 1018.5
20220927082805 64 0 0.0 0.0 0.00 0.00 0.00 49 1018.5
20220927082705 64 0 0.0 0.0 0.00 0.00 0.00 49 1018.5
20220927082605 64 0 0.0 0.0 0.00 0.00 0.00 49 1018.5
20220927082505 64 0 0.0 0.0 0.00 0.00 0.00 49 1018.6
20220927082205 64 0 0.0 0.0 0.00 0.00 0.00 49 1018.6
20220927082005 64 0 0.0 0.0 0.00 0.00 0.00 49 1018.6
20220927081905 64 0 0.0 0.0 0.00 0.00 0.00 49 1018.6
20220927081605 64 0 0.0 0.0 0.00 0.00 0.00 49 1018.6
20220927081505 64 0 0.0 0.0 0.00 0.00 0.00 49 1018.7
20220927081404 64 0 0.0 0.0 0.00 0.00 0.00 49 1018.7
20220927081205 64 0 0.0 0.0 0.00 0.00 0.00 49 1018.7
20220927081105 64 0 0.0 0.0 0.00 0.00 0.00 49 1018.7
20220927081005 64 0 0.0 0.0 0.00 0.00 0.00 49 1018.7
20220927080905 64 0 0.0 0.0 0.00 0.00 0.00 49 1018.7
20220927080705 64 0 0.0 0.0 0.00 0.00 0.00 49 1018.7
20220927080605 64 0 0.0 0.0 0.00 0.00 0.00 49 1018.7
20220927080505 64 0 0.0 0.0 0.00 0.00 0.00 49 1018.7
20220927080305 64 0 0.0 0.0 0.00 0.00 0.00 49 1018.7
20220927080105 64 0 0.0 0.0 0.00 0.00 0.00 49 1018.7
20220927080005 64 0 0.0 0.0 0.00 0.00 0.00 49 1018.7
20220927075905 64 0 0.0 0.0 0.00 0.00 0.00 49 1018.9
20220927075804 64 0 0.0 0.0 0.00 0.00 0.00 49 1018.8
20220927075705 64 0 0.0 0.0 0.00 0.00 0.00 49 1018.9
20220927075504 64 0 0.0 0.0 0.00 0.00 0.00 48 1018.8
20220927075405 64 0 0.0 0.0 0.00 0.00 0.00 49 1018.8
20220927075305 64 0 0.0 0.0 0.00 0.00 0.00 49 1018.8
20220927075204 64 0 0.0 0.0 0.00 0.00 0.00 49 1018.8
20220927075105 64 0 0.0 0.0 0.00 0.00 0.00 48 1018.9
20220927075005 64 0 0.0 0.0 0.00 0.00 0.00 48 1018.9
20220927074905 64 0 0.0 0.0 0.00 0.00 0.00 48 1018.8
20220927074805 64 0 0.0 0.0 0.00 0.00 0.00 49 1018.8
20220927074705 64 0 0.0 0.0 0.00 0.00 0.00 49 1018.9
20220927074405 64 0 0.0 0.0 0.00 0.00 0.00 49 1018.8
20220927074204 64 0 0.0 0.0 0.00 0.00 0.00 49 1018.9
20220927074105 64 0 0.0 0.0 0.00 0.00 0.00 48 1018.8
20220927074005 64 0 0.0 0.0 0.00 0.00 0.00 48 1018.8
20220927073805 64 0 0.0 0.0 0.00 0.00 0.00 48 1018.8
20220927073705 65 0 0.0 0.0 0.00 0.00 0.00 48 1018.9
20220927073604 65 0 0.0 0.0 0.00 0.00 0.00 48 1018.8
20220927073505 65 0 0.0 0.0 0.00 0.00 0.00 48 1018.8
20220927073404 65 0 0.0 0.0 0.00 0.00 0.00 48 1018.8
20220927073105 65 0 0.0 0.0 0.00 0.00 0.00 48 1018.8
20220927073004 65 0 0.0 0.0 0.00 0.00 0.00 48 1018.8
20220927072805 65 0 0.0 0.0 0.00 0.00 0.00 48 1018.7
20220927072604 65 0 0.0 0.0 0.00 0.00 0.00 48 1018.8
20220927072505 65 0 0.0 0.0 0.00 0.00 0.00 48 1018.7
20220927072404 65 0 0.0 0.0 0.00 0.00 0.00 48 1018.8
20220927072305 65 0 0.0 0.0 0.00 0.00 0.00 48 1018.8
20220927072004 65 0 0.0 0.0 0.00 0.00 0.00 49 1018.8
20220927071905 65 0 0.0 0.0 0.00 0.00 0.00 49 1018.8
20220927071805 65 0 0.0 0.0 0.00 0.00 0.00 49 1018.8
20220927071705 64 0 0.0 0.0 0.00 0.00 0.00 49 1018.8
20220927071605 64 0 0.0 0.0 0.00 0.00 0.00 49 1018.7
20220927071404 64 0 0.0 0.0 0.00 0.00 0.00 49 1018.7
20220927071305 64 0 0.0 0.0 0.00 0.00 0.00 49 1018.8
20220927071205 64 0 0.0 0.0 0.00 0.00 0.00 49 1018.7
20220927071105 64 0 0.0 0.0 0.00 0.00 0.00 49 1018.7
20220927071005 64 0 0.0 0.0 0.00 0.00 0.00 49 1018.7
20220927070705 64 0 0.0 0.0 0.00 0.00 0.00 49 1018.7
20220927070504 64 0 0.0 0.0 0.00 0.00 0.00 50 1018.7
20220927070305 64 0 0.0 0.0 0.00 0.00 0.00 50 1018.7
20220927070205 64 0 0.0 0.0 0.00 0.00 0.00 50 1018.7
20220927070105 64 0 0.0 0.0 0.00 0.00 0.00 50 1018.7
20220927070005 63 0 0.0 0.0 0.00 0.00 0.00 50 1018.7
20220927065904 63 0 0.0 0.0 0.00 0.00 0.00 51 1018.7
20220927065805 63 0 0.0 0.0 0.00 0.00 0.00 51 1018.7
20220927065705 63 0 0.0 0.0 0.00 0.00 0.00 51 1018.7
20220927065604 63 0 0.0 0.0 0.00 0.00 0.00 51 1018.8
20220927065405 63 0 0.0 0.0 0.00 0.00 0.00 51 1018.7
20220927065205 63 0 0.0 0.0 0.00 0.00 0.00 51 1018.8
20220927065005 63 0 0.0 0.0 0.00 0.00 0.00 52 1018.7
20220927064905 63 0 0.0 0.0 0.00 0.00 0.00 52 1018.7
20220927064805 63 0 0.0 0.0 0.00 0.00 0.00 52 1018.7
20220927064704 63 0 0.0 0.0 0.00 0.00 0.00 52 1018.7
20220927064605 63 0 0.0 0.0 0.00 0.00 0.00 52 1018.8
20220927064505 62 0 0.0 0.0 0.00 0.00 0.00 52 1018.8
20220927064404 62 0 0.0 0.0 0.00 0.00 0.00 52 1018.8
20220927064305 63 0 0.0 0.0 0.00 0.00 0.00 52 1018.8
20220927064205 63 0 0.0 0.0 0.00 0.00 0.00 52 1018.8
20220927064004 63 0 0.0 0.0 0.00 0.00 0.00 52 1018.8
20220927063905 63 0 0.0 0.0 0.00 0.00 0.00 52 1018.8
20220927063805 63 0 0.0 0.0 0.00 0.00 0.00 52 1018.8
20220927063605 63 0 0.0 0.0 0.00 0.00 0.00 52 1018.8
20220927063505 63 0 0.0 0.0 0.00 0.00 0.00 52 1018.9
20220927063205 63 0 0.0 0.0 0.00 0.00 0.00 52 1018.9
20220927063105 63 0 0.0 0.0 0.00 0.00 0.00 52 1018.9
20220927062905 63 0 0.0 0.0 0.00 0.00 0.00 51 1018.9
20220927062805 63 0 0.0 0.0 0.00 0.00 0.00 51 1018.9
20220927062305 63 0 0.0 0.0 0.00 0.00 0.00 51 1019.0
20220927062205 63 0 0.0 0.0 0.00 0.00 0.00 51 1019.0
20220927062105 63 0 0.0 0.0 0.00 0.00 0.00 51 1019.0
20220927061905 63 0 0.0 0.0 0.00 0.00 0.00 51 1019.0
20220927061805 63 0 0.0 0.0 0.00 0.00 0.00 51 1019.0
20220927061604 63 0 0.0 0.0 0.00 0.00 0.00 51 1019.0
20220927061505 63 0 0.0 0.0 0.00 0.00 0.00 51 1019.0
20220927061105 63 0 0.0 0.0 0.00 0.00 0.00 51 1019.1
20220927061005 63 0 0.0 0.0 0.00 0.00 0.00 50 1019.1
20220927060905 63 0 0.0 0.0 0.00 0.00 0.00 50 1019.0
20220927060805 63 0 0.0 0.0 0.00 0.00 0.00 50 1019.0
20220927060704 63 0 0.0 0.0 0.00 0.00 0.00 50 1019.0
20220927060605 63 0 0.0 0.0 0.00 0.00 0.00 50 1019.0
20220927060505 63 0 0.0 0.0 0.00 0.00 0.00 50 1019.0
20220927060404 63 0 0.0 0.0 0.00 0.00 0.00 50 1019.0
20220927060305 63 0 0.0 0.0 0.00 0.00 0.00 50 1019.0
20220927060205 64 0 0.0 0.0 0.00 0.00 0.00 50 1019.1
20220927060005 64 0 0.0 0.0 0.00 0.00 0.00 49 1019.1
20220927055905 64 0 0.0 0.0 0.00 0.00 0.00 49 1019.1
20220927055404 64 0 0.0 0.0 0.00 0.00 0.00 48 1019.1
20220927055305 64 0 0.0 0.0 0.00 0.00 0.00 48 1019.0
20220927055205 64 0 0.0 0.0 0.00 0.00 0.00 48 1019.1
20220927054805 64 0 0.0 0.0 0.00 0.00 0.00 48 1019.1
20220927054705 64 0 0.0 0.0 0.00 0.00 0.00 48 1019.1
20220927054604 64 0 0.0 0.0 0.00 0.00 0.00 48 1019.1
20220927054305 64 0 0.0 0.0 0.00 0.00 0.00 48 1019.1
20220927054005 65 0 0.0 0.0 0.00 0.00 0.00 47 1019.1
20220927053904 65 0 0.0 0.0 0.00 0.00 0.00 47 1019.1
20220927053805 65 0 0.0 0.0 0.00 0.00 0.00 47 1019.1
20220927053705 65 0 0.0 0.0 0.00 0.00 0.00 47 1019.1
20220927053604 65 0 0.0 0.0 0.00 0.00 0.00 47 1019.1
20220927053304 65 0 0.0 0.0 0.00 0.00 0.00 47 1019.1
20220927053105 65 0 0.0 0.0 0.00 0.00 0.00 47 1019.1
20220927053005 65 0 0.0 0.0 0.00 0.00 0.00 47 1019.1
20220927052905 65 0 0.0 0.0 0.00 0.00 0.00 47 1019.1
20220927052705 65 0 0.0 0.0 0.00 0.00 0.00 47 1019.1
20220927052405 66 0 0.0 0.0 0.00 0.00 0.00 47 1019.0
20220927052305 66 0 0.0 0.0 0.00 0.00 0.00 47 1019.0
20220927052204 66 0 0.0 0.0 0.00 0.00 0.00 46 1019.1
20220927052105 66 0 0.0 0.0 0.00 0.00 0.00 46 1019.0
20220927052004 66 0 0.0 0.0 0.00 0.00 0.00 46 1019.1
20220927051905 66 0 0.0 0.0 0.00 0.00 0.00 46 1019.0
20220927051805 66 0 0.0 0.0 0.00 0.00 0.00 46 1019.0
20220927051704 66 0 0.0 0.0 0.00 0.00 0.00 46 1019.1
20220927051605 66 0 0.0 0.0 0.00 0.00 0.00 46 1019.1
20220927051505 66 0 0.0 0.0 0.00 0.00 0.00 46 1019.0
20220927051305 66 0 0.0 0.0 0.00 0.00 0.00 46 1019.1
20220927051204 66 0 0.0 0.0 0.00 0.00 0.00 45 1019.0
20220927050905 66 0 0.0 0.0 0.00 0.00 0.00 45 1019.0
20220927050705 66 0 0.0 0.0 0.00 0.00 0.00 45 1019.0
20220927050604 66 0 0.0 0.0 0.00 0.00 0.00 45 1019.0
20220927050504 66 0 0.0 0.0 0.00 0.00 0.00 45 1018.9
20220927050305 66 0 0.0 0.0 0.00 0.00 0.00 45 1018.9
20220927050204 66 0 0.0 0.0 0.00 0.00 0.00 45 1018.9
20220927050105 66 0 0.0 0.0 0.00 0.00 0.00 45 1019.0
20220927050004 66 0 0.0 0.0 0.00 0.00 0.00 45 1019.0
20220927045905 66 0 0.0 0.0 0.00 0.00 0.00 45 1019.0
20220927045704 66 0 0.0 0.0 0.00 0.00 0.00 45 1019.0
20220927045605 66 0 0.0 0.0 0.00 0.00 0.00 45 1019.0
20220927045105 66 0 0.0 0.0 0.00 0.00 0.00 45 1018.9
20220927045004 66 0 0.0 0.0 0.00 0.00 0.00 45 1019.0
20220927044905 66 0 0.0 0.0 0.00 0.00 0.00 45 1019.0
20220927044705 67 0 0.0 0.0 0.00 0.00 0.00 45 1019.0
20220927044505 67 0 0.0 0.0 0.00 0.00 0.00 45 1019.0
20220927044404 67 0 0.0 0.0 0.00 0.00 0.00 45 1019.0
20220927044305 67 0 0.0 0.0 0.00 0.00 0.00 45 1019.0
20220927044205 67 0 0.0 0.0 0.00 0.00 0.00 45 1019.0
20220927043905 67 0 0.0 0.0 0.00 0.00 0.00 44 1018.9
20220927043704 67 0 0.0 0.0 0.00 0.00 0.00 44 1018.9
20220927043505 67 0 0.0 0.0 0.00 0.00 0.00 44 1018.9
20220927043404 67 0 0.0 0.0 0.00 0.00 0.00 44 1018.9
20220927043305 67 0 0.0 0.0 0.00 0.00 0.00 44 1018.9
20220927043104 67 0 0.0 0.0 0.00 0.00 0.00 44 1018.9
20220927042805 67 0 0.0 0.0 0.00 0.00 0.00 44 1019.0
20220927042605 67 0 0.0 0.0 0.00 0.00 0.00 44 1019.0
20220927042404 68 0 0.0 0.0 0.00 0.00 0.00 43 1019.0
20220927042305 68 0 0.0 0.0 0.00 0.00 0.00 43 1019.0
20220927042104 68 0 0.0 0.0 0.00 0.00 0.00 43 1019.0
20220927041405 68 0 0.0 0.0 0.00 0.00 0.00 42 1019.0
20220927041304 68 0 0.0 0.0 0.00 0.00 0.00 42 1019.0
20220927041105 68 0 0.0 0.0 0.00 0.00 0.00 42 1019.0
20220927041004 68 0 0.0 0.0 0.00 0.00 0.00 41 1019.0
20220927040805 69 0 0.0 0.0 0.00 0.00 0.00 41 1019.0
20220927040604 69 0 0.0 0.0 0.00 0.00 0.00 41 1019.1
20220927040505 69 0 0.0 0.0 0.00 0.00 0.00 41 1019.1
20220927040404 69 0 0.0 0.0 0.00 0.00 0.00 41 1019.0
20220927040304 69 0 0.0 0.0 0.00 0.00 0.00 41 1019.0
20220927040105 69 0 0.0 0.0 0.00 0.00 0.00 41 1018.9
20220927035804 69 0 0.0 0.0 0.00 0.00 0.00 40 1019.0
20220927035704 69 0 0.0 0.0 0.00 0.00 0.00 39 1019.0
20220927035605 70 0 0.0 0.0 0.00 0.00 0.00 39 1019.0
20220927035505 70 0 0.0 0.0 0.00 0.00 0.00 39 1019.0
20220927035305 70 0 0.0 0.0 0.00 0.00 0.00 39 1018.9
20220927035204 70 0 0.0 0.0 0.00 0.00 0.00 39 1018.9
20220927035105 70 0 0.0 0.0 0.00 0.00 0.00 39 1018.9
20220927034904 70 0 0.0 0.0 0.00 0.00 0.00 39 1019.0
20220927034805 70 0 0.0 0.0 0.00 0.00 0.00 39 1019.0
20220927034704 70 0 0.0 0.0 0.00 0.00 0.00 38 1019.0
20220927034604 70 0 0.0 0.0 0.00 0.00 0.00 38 1019.0
20220927034505 70 0 0.0 0.0 0.00 0.00 0.00 38 1019.0
20220927034304 70 0 0.0 0.0 0.00 0.00 0.00 38 1019.0
20220927034205 70 0 0.0 0.0 0.00 0.00 0.00 38 1019.0
20220927034004 71 0 0.0 0.0 0.00 0.00 0.00 38 1018.9
20220927033805 71 0 0.0 0.0 0.00 0.00 0.00 38 1018.9
20220927033704 71 0 0.0 0.0 0.00 0.00 0.00 37 1018.9
20220927033604 71 0 0.0 0.0 0.00 0.00 0.00 37 1018.9
20220927033304 71 0 0.0 0.0 0.00 0.00 0.00 37 1018.9
20220927033205 71 0 0.0 0.0 0.00 0.00 0.00 37 1018.9
20220927033105 71 0 0.0 0.0 0.00 0.00 0.00 37 1018.9
20220927033004 71 0 0.0 0.0 0.00 0.00 0.00 36 1018.9
20220927032905 71 0 0.0 0.0 0.00 0.00 0.00 36 1018.9
20220927032805 71 0 0.0 0.0 0.00 0.00 0.00 36 1018.9
20220927032704 71 0 0.0 0.0 0.00 0.00 0.00 36 1018.9
20220927032604 72 0 0.0 0.0 0.00 0.00 0.00 36 1018.9
20220927032505 72 0 0.0 0.0 0.00 0.00 0.00 36 1018.9
20220927032205 72 0 0.0 0.0 0.00 0.00 0.00 36 1018.9
20220927032004 72 0 0.0 0.0 0.00 0.00 0.00 36 1018.8
20220927031905 72 0 0.0 0.0 0.00 0.00 0.00 36 1018.8
20220927031804 72 0 0.0 0.0 0.00 0.00 0.00 36 1018.9
20220927031704 72 0 0.0 0.0 0.00 0.00 0.00 36 1018.8
20220927031605 72 0 0.0 0.0 0.00 0.00 0.00 36 1018.9
20220927031105 72 0 0.0 0.0 0.00 0.00 0.00 35 1018.7
20220927031004 72 0 0.0 0.0 0.00 0.00 0.00 36 1018.8
20220927030905 72 0 0.0 0.0 0.00 0.00 0.00 35 1018.7
20220927030804 73 0 0.0 0.0 0.00 0.00 0.00 35 1018.7
20220927030704 73 0 0.0 0.0 0.00 0.00 0.00 35 1018.7
20220927030605 73 0 0.0 0.0 0.00 0.00 0.00 35 1018.7
20220927030505 73 0 0.0 0.0 0.00 0.00 0.00 35 1018.7
20220927030404 73 0 0.0 0.0 0.00 0.00 0.00 35 1018.7
20220927030305 73 0 0.0 0.0 0.00 0.00 0.00 35 1018.7
20220927030104 73 0 0.0 0.0 0.00 0.00 0.00 35 1018.6
20220927030005 73 0 0.0 0.0 0.00 0.00 0.00 35 1018.6
20220927025804 73 0 0.0 0.0 0.00 0.00 0.00 35 1018.6
20220927025704 73 0 0.0 0.0 0.00 0.00 0.00 35 1018.6
20220927025605 73 0 0.0 0.0 0.00 0.00 0.00 35 1018.7
20220927025205 74 0 0.0 0.0 0.00 0.00 0.00 34 1018.6
20220927025105 74 0 0.0 0.0 0.00 0.00 0.00 34 1018.5
20220927024704 74 0 0.0 0.0 0.00 0.00 0.00 34 1018.5
20220927024605 74 0 0.0 0.0 0.00 0.00 0.00 34 1018.4
20220927024404 74 0 0.0 0.0 0.00 0.00 0.00 34 1018.4
20220927024304 74 0 0.0 0.0 0.00 0.00 0.00 34 1018.4
20220927024204 74 0 0.0 0.0 0.00 0.00 0.00 34 1018.5
20220927024004 74 0 0.0 0.0 0.00 0.00 0.00 34 1018.5
20220927023904 74 0 0.0 0.0 0.00 0.00 0.00 33 1018.5
20220927023705 74 0 0.0 0.0 0.00 0.00 0.00 33 1018.5
20220927023604 74 0 0.0 0.0 0.00 0.00 0.00 33 1018.5
20220927023304 74 0 0.0 0.0 0.00 0.00 0.00 33 1018.5
20220927023204 74 0 0.0 0.0 0.00 0.00 0.00 33 1018.5
20220927022904 74 0 0.0 0.0 0.00 0.00 0.00 33 1018.6
20220927022705 74 0 0.0 0.0 0.00 0.00 0.00 33 1018.5
20220927022604 74 0 0.0 0.0 0.00 0.00 0.00 33 1018.5
20220927022505 74 0 0.0 0.0 0.00 0.00 0.00 33 1018.5
20220927022404 74 0 0.0 0.0 0.00 0.00 0.00 33 1018.5
20220927022305 74 0 0.0 0.0 0.00 0.00 0.00 33 1018.5
20220927021805 75 0 0.0 0.0 0.00 0.00 0.00 32 1018.5
20220927021704 75 0 0.0 0.0 0.00 0.00 0.00 33 1018.5
20220927021604 75 0 0.0 0.0 0.00 0.00 0.00 32 1018.5
20220927021505 75 0 0.0 0.0 0.00 0.00 0.00 32 1018.4
20220927021404 75 0 0.0 0.0 0.00 0.00 0.00 32 1018.4
20220927021305 75 0 0.0 0.0 0.00 0.00 0.00 32 1018.4
20220927021205 75 0 0.0 0.0 0.00 0.00 0.00 33 1018.4
20220927021104 75 0 0.0 0.0 0.00 0.00 0.00 33 1018.3
20220927021005 75 0 0.0 0.0 0.00 0.00 0.00 33 1018.3
20220927020804 75 0 0.0 0.0 0.00 0.00 0.00 33 1018.3
20220927020705 75 0 0.0 0.0 0.00 0.00 0.00 33 1018.3
20220927020604 75 0 0.0 0.0 0.00 0.00 0.00 32 1018.2
20220927020404 75 0 0.0 0.0 0.00 0.00 0.00 32 1018.2
20220927020305 75 0 0.0 0.0 0.00 0.00 0.00 32 1018.2
20220927020204 75 0 0.0 0.0 0.00 0.00 0.00 32 1018.1
20220927020005 75 0 0.0 0.0 0.00 0.00 0.00 32 1018.2
20220927015904 75 0 0.0 0.0 0.00 0.00 0.00 32 1018.2
20220927015804 76 0 0.0 0.0 0.00 0.00 0.00 32 1018.2
20220927015705 76 0 0.0 0.0 0.00 0.00 0.00 32 1018.1
20220927015604 76 0 0.0 0.0 0.00 0.00 0.00 32 1018.2
20220927015105 76 0 0.0 0.0 0.00 0.00 0.00 31 1018.0
20220927015004 76 0 0.0 0.0 0.00 0.00 0.00 31 1018.0
20220927014804 76 0 0.0 0.0 0.00 0.00 0.00 31 1018.0
20220927014604 76 0 0.0 0.0 0.00 0.00 0.00 31 1018.0
20220927014405 76 0 0.0 0.0 0.00 0.00 0.00 31 1017.9
20220927014104 76 0 0.0 0.0 0.00 0.00 0.00 31 1017.9
20220927014004 76 0 0.0 0.0 0.00 0.00 0.00 31 1018.0
20220927013904 77 19 0.0 1.0 0.00 0.00 0.00 31 1017.9
20220927013804 77 19 0.0 1.0 0.00 0.00 0.00 30 1017.8
20220927013705 77 19 0.0 1.0 0.00 0.00 0.00 30 1017.8
20220927013604 77 19 0.0 1.0 0.00 0.00 0.00 30 1017.9
20220927013505 77 19 0.0 1.0 0.00 0.00 0.00 30 1017.8
20220927013404 77 19 0.0 1.0 0.00 0.00 0.00 30 1017.8
20220927013304 77 19 0.0 1.0 0.00 0.00 0.00 30 1017.8
20220927013205 77 19 0.0 1.0 0.00 0.00 0.00 30 1017.8
20220927013004 77 19 0.0 1.0 0.00 0.00 0.00 30 1017.7
20220927012905 77 0 0.0 0.0 0.00 0.00 0.00 30 1017.8
20220927012804 77 0 0.0 0.0 0.00 0.00 0.00 30 1017.7
20220927012604 77 0 0.0 0.0 0.00 0.00 0.00 30 1017.7
20220927012505 77 0 0.0 0.0 0.00 0.00 0.00 29 1017.6
20220927012404 78 0 0.0 0.0 0.00 0.00 0.00 29 1017.6
20220927012205 78 0 0.0 0.0 0.00 0.00 0.00 29 1017.6
20220927011905 78 0 0.0 0.0 0.00 0.00 0.00 29 1017.6
20220927011804 78 0 0.0 0.0 0.00 0.00 0.00 29 1017.6
20220927011604 78 0 0.0 0.0 0.00 0.00 0.00 29 1017.5
20220927011204 78 0 0.0 0.0 0.00 0.00 0.00 29 1017.5
20220927011105 78 0 0.0 0.0 0.00 0.00 0.00 29 1017.5
20220927010905 78 0 0.0 0.0 0.00 0.00 0.00 28 1017.5
20220927010804 78 0 0.0 0.0 0.00 0.00 0.00 28 1017.5
20220927010505 78 0 0.0 0.0 0.00 0.00 0.00 28 1017.5
20220927010304 79 16 0.0 1.0 0.00 0.00 0.00 28 1017.5
20220927010204 79 20 0.0 2.0 0.00 0.00 0.00 28 1017.5
20220927010105 79 21 0.0 2.0 0.00 0.00 0.00 28 1017.5
20220927010004 79 21 0.0 2.0 0.00 0.00 0.00 28 1017.5
20220927005704 79 18 0.0 2.0 0.00 0.00 0.00 28 1017.4
20220927005504 79 18 0.0 2.0 0.00 0.00 0.00 28 1017.3
20220927005404 79 19 0.0 2.0 0.00 0.00 0.00 28 1017.3
20220927005305 79 19 0.0 2.0 0.00 0.00 0.00 28 1017.3
20220927005204 79 18 0.0 2.0 0.00 0.00 0.00 28 1017.3
20220927004805 80 17 0.0 2.0 0.00 0.00 0.00 28 1017.3
20220927004704 80 22 0.0 2.0 0.00 0.00 0.00 28 1017.2
20220927004604 80 22 0.0 2.0 0.00 0.00 0.00 28 1017.3
20220927004505 80 28 0.0 1.0 0.00 0.00 0.00 28 1017.2
20220927004204 80 19 0.0 1.0 0.00 0.00 0.00 29 1017.3
20220927004105 80 15 0.0 1.0 0.00 0.00 0.00 28 1017.3
20220927004004 80 15 0.0 1.0 0.00 0.00 0.00 28 1017.2
20220927003704 80 14 0.0 2.0 0.00 0.00 0.00 28 1017.2
20220927003404 80 21 0.0 3.0 0.00 0.00 0.00 28 1017.1
20220927003304 80 24 0.0 3.0 0.00 0.00 0.00 28 1017.1
20220927003105 81 27 0.0 3.0 0.00 0.00 0.00 28 1017.1
20220927003004 81 23 0.0 3.0 0.00 0.00 0.00 28 1017.1
20220927002604 81 27 0.0 3.0 0.00 0.00 0.00 28 1017.0
20220927002504 81 32 0.0 5.0 0.00 0.00 0.00 28 1017.0
20220927002404 81 24 0.0 6.0 0.00 0.00 0.00 28 1017.0
20220927002104 81 22 0.0 6.0 0.00 0.00 0.00 28 1017.0
20220927002006 81 23 0.0 6.0 0.00 0.00 0.00 28 1017.0
20220927001804 82 21 0.0 6.0 0.00 0.00 0.00 28 1016.9
20220927001704 82 20 0.0 6.0 0.00 0.00 0.00 28 1016.9
20220927001604 82 21 0.0 6.0 0.00 0.00 0.00 27 1016.9
20220927001504 82 18 0.0 6.0 0.00 0.00 0.00 27 1016.9
20220927001204 82 22 0.0 6.0 0.00 0.00 0.00 27 1016.9